Weather History for KFDY - September, 2013

Change the Weather History Date:

Sunday, September 15, 2013

  Actual Average Record
Temperature  
Mean Temperature 58 °F -  
Max Temperature 73 °F 74 °F 92 °F (1991)
Min Temperature 44 °F 54 °F 39 °F (1953)
Degree Days  
Heating Degree Days 8    
Growing Degree Days 8 (Base 50)    
Moisture  
Dew Point 48 °F    
Average Humidity 70    
Maximum Humidity 93    
Minimum Humidity 39    
Precipitation  
Precipitation 0.23 in - - ()
Sea Level Pressure  
Sea Level Pressure 30.09 in    
Wind  
Wind Speed 6 mph (South)    
Max Wind Speed 17 mph    
Max Gust Speed 23 mph    
Visibility 9 miles    
Events Rain    
Averages and records for this station are not official NWS values.
T = Trace of Precipitation, MM = Missing Value Source: NWS Daily Summary

Daily Weather History Graph

Daily Weather History Graph

Search for Another Location

Airport or City:

Trip Planner

Search our weather history database for the weather conditions in past years. The results will help you decide how hot, cold, wet, or windy it might be!

Date:

Astronomy

Sep. 15, 2013 Rise Set
Actual Time 7:15 AM EDT 7:43 PM EDT
Civil Twilight 6:47 AM EDT 8:10 PM EDT
Nautical Twilight 6:15 AM EDT 8:43 PM EDT
Astronomical Twilight 5:41 AM EDT 9:16 PM EDT
Moon 5:11 PM EDT (9/15) 2:50 AM EDT (9/15)
Length of Visible Light 13h 23m
Length of Day
12h 27m
Waxing Gibbous, 82% of the Moon is Illuminated
Sep 15
Waxing Gibbous
Sep 19
Full
Sep 26
Last Quarter
Oct 4
New
Oct 11
First Quarter

Hourly Weather History & Observations

Time (EDT) Temp. Windchill Dew Point Humidity Pressure Visibility Wind Dir Wind Speed Gust Speed Precip Events Conditions
12:53 AM 50.0 °F - 45.0 °F 83% 30.09 in 10.0 mi SSE 3.5 mph - N/A   Clear
1:53 AM 48.0 °F - 44.1 °F 86% 30.09 in 10.0 mi South 3.5 mph - N/A   Clear
2:53 AM 50.0 °F - 44.1 °F 80% 30.09 in 10.0 mi SSE 5.8 mph - N/A   Clear
3:53 AM 48.0 °F - 43.0 °F 83% 30.09 in 10.0 mi SSE 8.1 mph - N/A   Clear
4:53 AM 46.9 °F - 42.1 °F 83% 30.10 in 10.0 mi South 4.6 mph - N/A   Clear
5:53 AM 44.1 °F 40.8 °F 41.0 °F 89% 30.11 in 10.0 mi South 5.8 mph - N/A   Clear
6:53 AM 46.9 °F - 43.0 °F 86% 30.12 in 10.0 mi South 6.9 mph - N/A   Clear
7:53 AM 48.9 °F - 44.1 °F 83% 30.13 in 10.0 mi South 3.5 mph - N/A   Clear
8:53 AM 52.0 °F - 46.9 °F 83% 30.13 in 10.0 mi Calm Calm - N/A   Clear
9:53 AM 59.0 °F - 51.1 °F 75% 30.14 in 10.0 mi SSW 4.6 mph - N/A   Clear
10:53 AM 64.0 °F - 50.0 °F 60% 30.12 in 10.0 mi SSW 5.8 mph - N/A   Clear
11:53 AM 66.9 °F - 48.9 °F 52% 30.11 in 10.0 mi WSW 9.2 mph - N/A   Clear
12:53 PM 68.0 °F - 46.0 °F 45% 30.08 in 10.0 mi South 8.1 mph - N/A   Clear
1:53 PM 71.1 °F - 45.0 °F 39% 30.06 in 10.0 mi SSW 8.1 mph - N/A   Clear
2:53 PM 71.1 °F - 46.0 °F 41% 30.05 in 10.0 mi SSW 6.9 mph - N/A   Clear
3:53 PM 71.1 °F - 45.0 °F 39% 30.03 in 10.0 mi WSW 6.9 mph - N/A   Scattered Clouds
4:53 PM 71.1 °F - 46.9 °F 42% 30.02 in 10.0 mi South 6.9 mph - N/A   Mostly Cloudy
5:53 PM 70.0 °F - 46.9 °F 44% 30.01 in 10.0 mi South 6.9 mph - N/A   Mostly Cloudy
6:53 PM 68.0 °F - 50.0 °F 52% 30.05 in 10.0 mi West 4.6 mph - N/A   Overcast
7:53 PM 60.1 °F - 53.1 °F 78% 30.07 in 10.0 mi North 11.5 mph 23.0 mph 0.01 in Rain Light Rain
8:53 PM 57.9 °F - 54.0 °F 87% 30.09 in 5.0 mi NNE 17.3 mph - 0.03 in Rain Heavy Rain
9:53 PM 57.9 °F - 55.9 °F 93% 30.10 in 7.0 mi NNE 9.2 mph - 0.05 in Rain Light Rain
10:53 PM 57.0 °F - 55.0 °F 93% 30.12 in 5.0 mi NNE 8.1 mph - 0.10 in Rain Light Rain
11:53 PM 57.0 °F - 55.0 °F 93% 30.12 in 6.0 mi ENE 3.5 mph - 0.04 in Rain Light Rain